Location: Burbank
(38.7788°N, 114.0429°W)
Time: 20:47:19
(UTC+00:00)

Vanguard 2 Rocket - Pass Details

Date: 20 May 2026
Orbit: 553 x 3286 km, 32.9° (Epoch: 6 June)

Event Time Altitude Azimuth Distance (km) Brightness Sun altitude
Rises 14:17:00 0° 186° (S) 3,740 9.9 20.8°
Reaches altitude 10° 14:20:45 10° 162° (SSE) 3,215 9.9 21.5°
Maximum altitude 14:25:04 15° 130° (SE) 3,322 10.5 22.4°
Drops below altitude 10° 14:30:34 10° 100° (E) 4,317 11.9 23.4°
Sets 14:37:10 0° 82° (E) 5,971 12.5 24.7°
